Weather History for Casa Grande, AZ

Change the Weather History Date:

Wednesday, May 2, 2012

  Actual Average Record
Temperature  
Mean Temperature 74 °F -  
Max Temperature 91 °F 86 °F 96 °F (2006)
Min Temperature 57 °F 54 °F 46 °F (2008)
Cooling Degree Days 9    
Growing Degree Days 24 (Base 50)    
Moisture  
Dew Point 34 °F    
Average Humidity 22    
Maximum Humidity 38    
Minimum Humidity 10    
Precipitation  
Precipitation 0.00 in - - ()
Sea Level Pressure  
Sea Level Pressure 29.83 in    
Wind  
Wind Speed 6 mph (SSW)    
Max Wind Speed 14 mph    
Max Gust Speed 21 mph    
Visibility 10 miles    
Events      
Averages and records for this station are not official NWS values.
T = Trace of Precipitation, MM = Missing Value Source: NWS Daily Summary

Daily Weather History Graph

Daily Weather History Graph

Search for Another Location

Airport:

Trip Planner

Search our weather history database for the weather conditions in past years. The results will help you decide how hot, cold, wet, or windy it might be!

Date:

Astronomy

May. 02, 2012 Rise Set
Actual Time 5:38 AM MST 7:10 PM MST
Civil Twilight 5:11 AM MST 7:36 PM MST
Nautical Twilight 4:40 AM MST 8:08 PM MST
Astronomical Twilight 4:06 AM MST 8:41 PM MST
Moon 3:37 PM MST 2:57 AM MST
Length of Visible Light 14h 25m
Length of Day
13h 32m
Waxing Gibbous, 84% of the Moon is Illuminated
May 2
Waxing Gibbous
May 5
Full
May 12
Last Quarter
May 20
New
May 28
First Quarter

Hourly Weather History & Observations

Time (MST) Temp. Dew Point Humidity Pressure Visibility Wind Dir Wind Speed Gust Speed Precip Events Conditions
12:15 AM 73.4 °F 42.8 °F 33% 29.80 in 10.0 mi SSW 8.1 mph - N/A   Clear
12:35 AM 73.4 °F 41.0 °F 31% 29.81 in 10.0 mi SSW 10.4 mph 16.1 mph N/A   Clear
12:55 AM 71.6 °F 39.2 °F 31% 29.81 in 10.0 mi SSW 4.6 mph - N/A   Clear
1:15 AM 69.8 °F 39.2 °F 33% 29.80 in 10.0 mi Calm Calm - N/A   Clear
1:35 AM 71.6 °F 37.4 °F 29% 29.80 in 10.0 mi South 4.6 mph - N/A   Clear
1:55 AM 71.6 °F 33.8 °F 25% 29.80 in 10.0 mi SSW 4.6 mph - N/A   Clear
2:15 AM 71.6 °F 30.2 °F 22% 29.80 in 10.0 mi South 5.8 mph - N/A   Clear
2:35 AM 71.6 °F 30.2 °F 22% 29.80 in 10.0 mi South 8.1 mph - N/A   Clear
2:55 AM 69.8 °F 30.2 °F 23% 29.81 in 10.0 mi SSE 4.6 mph - N/A   Clear
3:15 AM 69.8 °F 32.0 °F 25% 29.81 in 10.0 mi SE 4.6 mph - N/A   Clear
3:35 AM 66.2 °F 32.0 °F 28% 29.81 in 10.0 mi Calm Calm - N/A   Clear
3:55 AM 62.6 °F 32.0 °F 32% 29.81 in 10.0 mi NE 5.8 mph - N/A   Clear
4:15 AM 64.4 °F 33.8 °F 32% 29.81 in 10.0 mi Calm Calm - N/A   Clear
4:35 AM 60.8 °F 32.0 °F 34% 29.81 in 10.0 mi NNE 4.6 mph - N/A   Clear
4:55 AM 60.8 °F 32.0 °F 34% 29.82 in 10.0 mi Calm Calm - N/A   Clear
5:15 AM 60.8 °F 30.2 °F 31% 29.82 in 10.0 mi NNW 3.5 mph - N/A   Clear
5:35 AM 57.2 °F 32.0 °F 38% 29.83 in 10.0 mi Calm Calm - N/A   Clear
5:55 AM 57.2 °F 30.2 °F 36% 29.83 in 10.0 mi Calm Calm - N/A   Clear
6:15 AM 60.8 °F 32.0 °F 34% 29.84 in 10.0 mi Calm Calm - N/A   Clear
6:35 AM 62.6 °F 32.0 °F 32% 29.85 in 10.0 mi Calm Calm - N/A   Clear
6:55 AM 66.2 °F 35.6 °F 32% 29.85 in 10.0 mi Calm Calm - N/A   Clear
7:15 AM 68.0 °F 35.6 °F 30% 29.86 in 10.0 mi Calm Calm - N/A   Clear
7:35 AM 69.8 °F 35.6 °F 28% 29.86 in 10.0 mi Calm Calm - N/A   Clear
7:55 AM 71.6 °F 35.6 °F 27% 29.86 in 10.0 mi Calm Calm - N/A   Clear
8:15 AM 71.6 °F 35.6 °F 27% 29.87 in 10.0 mi Calm Calm - N/A   Clear
8:35 AM 73.4 °F 35.6 °F 25% 29.88 in 10.0 mi Calm Calm - N/A   Clear
8:55 AM 75.2 °F 35.6 °F 24% 29.88 in 10.0 mi ESE 5.8 mph - N/A   Clear
9:15 AM 75.2 °F 33.8 °F 22% 29.89 in 10.0 mi Calm Calm - N/A   Clear
9:35 AM 78.8 °F 33.8 °F 20% 29.89 in 10.0 mi SSE 5.8 mph - N/A   Clear
9:55 AM 78.8 °F 33.8 °F 20% 29.89 in 10.0 mi ESE 4.6 mph - N/A   Clear
10:15 AM 80.6 °F 33.8 °F 18% 29.89 in 10.0 mi SW 5.8 mph - N/A   Clear
10:35 AM 82.4 °F 33.8 °F 17% 29.88 in 10.0 mi South 12.7 mph 17.3 mph N/A   Clear
10:55 AM 82.4 °F 33.8 °F 17% 29.88 in 10.0 mi WSW 6.9 mph - N/A   Clear
11:15 AM 82.4 °F 33.8 °F 17% 29.87 in 10.0 mi South 9.2 mph - N/A   Clear
11:35 AM 84.2 °F 33.8 °F 16% 29.87 in 10.0 mi SSW 10.4 mph 18.4 mph N/A   Clear
11:55 AM 84.2 °F 32.0 °F 15% 29.86 in 10.0 mi SSW 9.2 mph - N/A   Clear
12:15 PM 84.2 °F 32.0 °F 15% 29.85 in 10.0 mi East 4.6 mph - N/A   Clear
12:35 PM 87.8 °F 32.0 °F 14% 29.84 in 10.0 mi SSE 9.2 mph 17.3 mph N/A   Clear
12:55 PM 87.8 °F 30.2 °F 13% 29.83 in 10.0 mi South 6.9 mph 19.6 mph N/A   Clear
1:15 PM 89.6 °F 30.2 °F 12% 29.83 in 10.0 mi South 10.4 mph 19.6 mph N/A   Clear
1:35 PM 89.6 °F 30.2 °F 12% 29.83 in 10.0 mi Calm Calm - N/A   Clear
1:55 PM 89.6 °F 28.4 °F 11% 29.82 in 10.0 mi SSW 4.6 mph 17.3 mph N/A   Clear
2:15 PM 89.6 °F 28.4 °F 11% 29.81 in 10.0 mi South 3.5 mph 16.1 mph N/A   Clear
2:35 PM 89.6 °F 28.4 °F 11% 29.80 in 10.0 mi SSW 4.6 mph - N/A   Clear
2:55 PM 89.6 °F 30.2 °F 12% 29.80 in 10.0 mi WSW 8.1 mph - N/A   Clear
3:15 PM 91.4 °F 30.2 °F 11% 29.79 in 10.0 mi SW 10.4 mph 17.3 mph N/A   Clear
3:35 PM 91.4 °F 28.4 °F 10% 29.78 in 10.0 mi South 6.9 mph - N/A   Clear
3:55 PM 91.4 °F 28.4 °F 10% 29.78 in 10.0 mi South 11.5 mph - N/A   Clear
4:15 PM 91.4 °F 28.4 °F 10% 29.78 in 10.0 mi West 6.9 mph 18.4 mph N/A   Clear
4:35 PM 89.6 °F 28.4 °F 11% 29.77 in 10.0 mi SW 9.2 mph - N/A   Clear
4:55 PM 91.4 °F 28.4 °F 10% 29.77 in 10.0 mi South 11.5 mph - N/A   Clear
5:15 PM 91.4 °F 28.4 °F 10% 29.77 in 10.0 mi South 12.7 mph 18.4 mph N/A   Clear
5:35 PM 91.4 °F 28.4 °F 10% 29.77 in 10.0 mi SW 11.5 mph 18.4 mph N/A   Clear
5:55 PM 89.6 °F 28.4 °F 11% 29.78 in 10.0 mi SW 13.8 mph 18.4 mph N/A   Clear
6:15 PM 87.8 °F 30.2 °F 13% 29.78 in 10.0 mi SW 11.5 mph - N/A   Clear
6:35 PM 87.8 °F 30.2 °F 13% 29.78 in 10.0 mi SSW 9.2 mph - N/A   Clear
6:55 PM 84.2 °F 37.4 °F 19% 29.79 in 10.0 mi West 13.8 mph 20.7 mph N/A   Clear
7:15 PM 84.2 °F 39.2 °F 20% 29.80 in 10.0 mi West 11.5 mph - N/A   Clear
7:35 PM 82.4 °F 41.0 °F 23% 29.80 in 10.0 mi West 12.7 mph - N/A   Clear
7:55 PM 82.4 °F 42.8 °F 25% 29.82 in 10.0 mi West 10.4 mph 18.4 mph N/A   Clear
8:15 PM 80.6 °F 42.8 °F 26% 29.82 in 10.0 mi West 12.7 mph 16.1 mph N/A   Clear
8:35 PM 80.6 °F 39.2 °F 23% 29.83 in 10.0 mi West 10.4 mph 17.3 mph N/A   Clear
8:55 PM 78.8 °F 37.4 °F 23% 29.84 in 10.0 mi West 9.2 mph - N/A   Clear
9:15 PM 78.8 °F 37.4 °F 23% 29.85 in 10.0 mi West 8.1 mph - N/A   Clear
9:35 PM 75.2 °F 37.4 °F 25% 29.86 in 10.0 mi SW 6.9 mph - N/A   Clear
9:55 PM 73.4 °F 37.4 °F 27% 29.86 in 10.0 mi West 5.8 mph - N/A   Clear
10:15 PM 73.4 °F 37.4 °F 27% 29.87 in 10.0 mi WSW 4.6 mph - N/A   Clear
10:35 PM 71.6 °F 37.4 °F 29% 29.87 in 10.0 mi WSW 3.5 mph - N/A   Clear
10:55 PM 71.6 °F 35.6 °F 27% 29.88 in 10.0 mi SW 4.6 mph - N/A   Clear
11:15 PM 69.8 °F 35.6 °F 28% 29.88 in 10.0 mi SSW 4.6 mph - N/A   Clear
11:35 PM 69.8 °F 33.8 °F 27% 29.88 in 10.0 mi SE 4.6 mph - N/A   Clear
11:55 PM 71.6 °F 33.8 °F 25% 29.88 in 10.0 mi SSW 6.9 mph - N/A   Clear